Location: Boćki
(52.6512°N, 23.0459°E)
Time: 13:26:38
(UTC+01:00)

ISS - Pass Details

Date: 29 January 2019
Orbit: 403 x 411 km, 51.6° (Epoch: 20 February)

Event Time Altitude Azimuth Distance (km) Brightness Sun altitude
Rises 16:41:01 0° 229° (SW) 2,326 1.7 -5.4°
Reaches altitude 10° 16:43:12 10° 220° (SW) 1,470 0.2 -5.8°
Maximum altitude 16:46:12 33° 154° (SSE) 710 -2.6 -6.2°
Drops below altitude 10° 16:49:14 10° 88° (E) 1,480 -1.6 -6.6°
Enters shadow 16:49:39 - 86° (E) 1,641 -1.4 -6.7°
